Home > Weather > San Jose > Past weeks

Flag for Costa Rica Weather for the Past 2 Weeks in San Jose, Costa Rica

Now
72 °F

Fog.


Feels Like: 69 °F
Forecast: 66 / 81 °F
Wind: 6 mph from East

Location: Juan Santamaria

Current Time: May 5, 2016 at 10:30:36 PM

Latest Report: May 5, 2016 at 10:00 PM


Visibility: 3 mi

Pressure: 30.03 "Hg (26.25 "Hg at 1161m altitude)

Humidity: 88%

Dew Point: 68 °F

Location of San JoseLocation

Historic Weather in San Jose — Graph

°F

San Jose Temperature Yesterday

Maximum temperature yesterday: 82 °F (at 12:00 PM)
Minimum temperature yesterday: 68 °F (at 1:00 AM)
Average temperature yesterday: 73 °F

High & Low Weather Summary for the Past Weeks

 TemperatureHumidityPressure
High88 °F (Apr 21, 11:00 AM)94% (Apr 24, 5:00 AM)30.09 "Hg (Apr 24, 5:00 AM)
Low66 °F (May 1, 4:00 AM)31% (Apr 21, 11:00 AM)29.89 "Hg (Apr 21, 3:00 PM)
Average75 °F75%29.99 "Hg
* Reported Apr 20 9:00 PM — May 5 9:00 PM, San Jose, Weather by CustomWeather, © 2016

Note: Actual official high and low records may vary slightly from our data, if they occured in-between our weather recording intervals... More about our weather records

Advertising

San Jose Weather History for the Previous 24 Hours

Scroll right to see more
 ConditionsComfort  
Time TempWeatherWind HumidityBarometerVisibility
9:00 PM
Thu, May 5
72 °FPassing clouds.3 mph88%30.03 "HgN/A
8:00 PM72 °FPassing clouds.3 mph88%30.02 "HgN/A
7:00 PM72 °FPassing clouds.3 mph88%30.01 "HgN/A
6:00 PM73 °FPassing clouds.3 mph78%29.99 "HgN/A
5:00 PM75 °FPartly sunny.3 mph74%29.97 "HgN/A
4:00 PM75 °FBroken clouds.8 mph74%29.97 "HgN/A
3:00 PM75 °FPartly sunny.14 mph74%29.97 "HgN/A
2:00 PM81 °FPartly sunny.14 mph66%29.97 "HgN/A
1:00 PM82 °FPartly sunny.9 mph62%29.98 "HgN/A
12:00 PM82 °FPartly sunny.5 mph62%30.03 "HgN/A
11:00 AM77 °FBroken clouds.5 mph74%30.05 "HgN/A
10:10 AM72 °FFog.10 mph94%30.07 "Hg2 mi
10:00 AM73 °FPartly sunny.9 mph89%30.07 "Hg4 mi
9:00 AM75 °FPartly sunny.7 mph78%30.06 "HgN/A
8:00 AM70 °FBroken clouds.No wind94%30.09 "HgN/A
7:00 AM70 °FRain. Fog.2 mph88%30.08 "Hg3 mi
6:00 AM70 °FBroken clouds.3 mph88%30.05 "HgN/A
5:00 AM70 °FPartly cloudy.3 mph94%30.03 "HgN/A
4:00 AM70 °FPassing clouds.5 mph94%30.02 "HgN/A
3:00 AM70 °FPassing clouds.3 mph88%30.00 "HgN/A
2:00 AM70 °FPassing clouds.No wind88%30.00 "HgN/A
1:00 AM70 °FPassing clouds.No wind88%30.02 "HgN/A
12:00 AM72 °FPassing clouds.3 mph88%30.04 "HgN/A
11:00 PM
Wed, May 4
72 °FPassing clouds.6 mph83%30.05 "HgN/A
10:00 PM72 °FPassing clouds.3 mph83%30.05 "HgN/A
Weather by CustomWeather, © 2016

See weather overviewHow to use our weather pages